Time,TemperatureF,DewpointF,PressureIn,WindDirection,WindDirectionDegrees,WindSpeedMPH,WindSpeedGustMPH,Humidity,HourlyPrecipIn,Conditions,Clouds,dailyrainin,SolarRadiationWatts/m^2,SoftwareType,DateUTC
2013-01-11 00:22:00,55.0,-99.9,-100.00,SE,125,8.0,19.0,-999,0.00,,,0.00,0.000000,,2013-01-11 10:22:00,
2013-01-11 00:32:00,55.0,-99.9,-100.00,SE,125,8.0,19.0,-999,0.00,,,0.00,0.000000,,2013-01-11 10:32:00,
2013-01-11 00:43:00,55.0,-99.9,-100.00,SE,125,8.0,19.0,-999,0.00,,,0.00,0.000000,,2013-01-11 10:43:00,
2013-01-11 00:53:00,55.0,-99.9,-100.00,SE,125,8.0,19.0,-999,0.00,,,0.00,0.000000,,2013-01-11 10:53:00,
2013-01-11 01:23:00,48.0,-99.9,-100.00,WSW,241,2.0,19.0,-999,0.00,,,0.00,0.000000,,2013-01-11 11:23:00,
2013-01-11 01:33:00,48.0,-99.9,-100.00,WSW,241,2.0,19.0,-999,0.00,,,0.00,0.000000,,2013-01-11 11:33:00,
2013-01-11 01:43:00,48.0,-99.9,-100.00,WSW,241,2.0,19.0,-999,0.00,,,0.00,0.000000,,2013-01-11 11:43:00,
2013-01-11 01:53:00,48.0,-99.9,-100.00,WSW,241,2.0,19.0,-999,0.00,,,0.00,0.000000,,2013-01-11 11:53:00,
2013-01-11 02:23:00,41.0,-99.9,-100.00,SSE,167,3.0,7.0,-999,0.00,,,-99.99,0.000000,,2013-01-11 12:23:00,
2013-01-11 02:33:00,41.0,-99.9,-100.00,SSE,167,3.0,7.0,-999,0.00,,,-99.99,0.000000,,2013-01-11 12:33:00,
2013-01-11 02:43:00,41.0,-99.9,-100.00,SSE,167,3.0,7.0,-999,0.00,,,-99.99,0.000000,,2013-01-11 12:43:00,
2013-01-11 02:53:00,41.0,-99.9,-100.00,SSE,167,3.0,7.0,-999,0.00,,,-99.99,0.000000,,2013-01-11 12:53:00,
2013-01-11 03:22:00,44.0,43.0,-100.00,ESE,104,3.0,10.0,95,0.00,,,-99.99,0.000000,,2013-01-11 13:22:00,
2013-01-11 03:33:00,44.0,43.0,-100.00,ESE,104,3.0,10.0,95,0.00,,,-99.99,0.000000,,2013-01-11 13:33:00,
2013-01-11 03:42:00,44.0,43.0,-100.00,ESE,104,3.0,10.0,95,0.00,,,-99.99,0.000000,,2013-01-11 13:42:00,
2013-01-11 03:52:00,44.0,43.0,-100.00,ESE,104,3.0,10.0,95,0.00,,,-99.99,0.000000,,2013-01-11 13:52:00,
2013-01-11 04:23:00,41.0,-99.9,-100.00,SW,214,3.0,9.0,-999,0.00,,,0.00,0.000000,,2013-01-11 14:23:00,
2013-01-11 04:33:00,41.0,-99.9,-100.00,SW,214,3.0,9.0,-999,0.00,,,0.00,0.000000,,2013-01-11 14:33:00,
2013-01-11 04:43:00,41.0,-99.9,-100.00,SW,214,3.0,9.0,-999,0.00,,,0.00,0.000000,,2013-01-11 14:43:00,
2013-01-11 04:53:00,41.0,-99.9,-100.00,SW,214,3.0,9.0,-999,0.00,,,0.00,0.000000,,2013-01-11 14:53:00,
2013-01-11 05:23:00,41.0,-99.9,-100.00,ESE,116,6.0,8.0,-999,0.00,,,0.00,0.000000,,2013-01-11 15:23:00,
2013-01-11 05:33:00,41.0,-99.9,-100.00,ESE,116,6.0,8.0,-999,0.00,,,0.00,0.000000,,2013-01-11 15:33:00,
2013-01-11 05:43:00,41.0,-99.9,-100.00,ESE,116,6.0,8.0,-999,0.00,,,0.00,0.000000,,2013-01-11 15:43:00,
2013-01-11 05:53:00,41.0,-99.9,-100.00,ESE,116,6.0,8.0,-999,0.00,,,0.00,0.000000,,2013-01-11 15:53:00,
2013-01-11 06:23:00,46.0,-99.9,-100.00,South,183,7.0,11.0,-999,0.00,,,-99.99,0.000000,,2013-01-11 16:23:00,
2013-01-11 06:33:00,46.0,-99.9,-100.00,South,183,7.0,11.0,-999,0.00,,,-99.99,0.000000,,2013-01-11 16:33:00,
2013-01-11 06:43:00,46.0,-99.9,-100.00,South,183,7.0,11.0,-999,0.00,,,-99.99,0.000000,,2013-01-11 16:43:00,
2013-01-11 06:53:00,46.0,-99.9,-100.00,South,183,7.0,11.0,-999,0.00,,,-99.99,0.000000,,2013-01-11 16:53:00,
2013-01-11 08:24:00,52.0,-99.9,-100.00,SSE,152,4.0,10.0,-999,-99.99,,,0.00,,,2013-01-11 18:24:00,
2013-01-11 08:33:00,52.0,-99.9,-100.00,SSE,152,4.0,10.0,-999,-99.99,,,0.00,,,2013-01-11 18:33:00,
2013-01-11 08:43:00,52.0,-99.9,-100.00,SSE,152,4.0,10.0,-999,-99.99,,,0.00,,,2013-01-11 18:43:00,
2013-01-11 08:53:00,52.0,-99.9,-100.00,SSE,152,4.0,10.0,-999,-99.99,,,0.00,,,2013-01-11 18:53:00,
2013-01-11 09:23:00,62.0,-99.9,-100.00,NE,34,3.0,8.0,-999,0.00,,,0.00,326.000000,,2013-01-11 19:23:00,
2013-01-11 09:33:00,62.0,-99.9,-100.00,NE,34,3.0,8.0,-999,0.00,,,0.00,326.000000,,2013-01-11 19:33:00,
2013-01-11 09:43:00,62.0,-99.9,-100.00,NE,34,3.0,8.0,-999,0.00,,,0.00,326.000000,,2013-01-11 19:43:00,
2013-01-11 09:54:00,62.0,-99.9,-100.00,NE,34,3.0,8.0,-999,0.00,,,0.00,326.000000,,2013-01-11 19:54:00,
2013-01-11 10:22:00,66.0,56.0,-100.00,WNW,299,6.0,9.0,69,0.00,,,0.00,560.000000,,2013-01-11 20:22:00,
2013-01-11 10:33:00,66.0,56.0,-100.00,WNW,299,6.0,9.0,69,0.00,,,0.00,560.000000,,2013-01-11 20:33:00,
2013-01-11 10:43:00,66.0,56.0,-100.00,WNW,299,6.0,9.0,69,0.00,,,0.00,560.000000,,2013-01-11 20:43:00,
2013-01-11 10:52:00,66.0,56.0,-100.00,WNW,299,6.0,9.0,69,0.00,,,0.00,560.000000,,2013-01-11 20:52:00,
2013-01-11 11:23:00,67.0,-99.9,-100.00,NNW,334,7.0,11.0,-999,0.00,,,0.00,738.000000,,2013-01-11 21:23:00,
2013-01-11 11:33:00,67.0,-99.9,-100.00,NNW,334,7.0,11.0,-999,0.00,,,0.00,738.000000,,2013-01-11 21:33:00,
2013-01-11 11:43:00,67.0,-99.9,-100.00,NNW,334,7.0,11.0,-999,0.00,,,0.00,738.000000,,2013-01-11 21:43:00,
2013-01-11 11:53:00,67.0,-99.9,-100.00,NNW,334,7.0,11.0,-999,0.00,,,0.00,738.000000,,2013-01-11 21:53:00,
2013-01-11 12:23:00,64.0,-99.9,-100.00,NNW,334,7.0,16.0,-999,0.00,,,0.00,857.000000,,2013-01-11 22:23:00,
2013-01-11 12:33:00,64.0,-99.9,-100.00,NNW,334,7.0,16.0,-999,0.00,,,0.00,857.000000,,2013-01-11 22:33:00,
2013-01-11 12:43:00,64.0,-99.9,-100.00,NNW,334,7.0,16.0,-999,0.00,,,0.00,857.000000,,2013-01-11 22:43:00,
2013-01-11 12:53:00,64.0,-99.9,-100.00,NNW,334,7.0,16.0,-999,0.00,,,0.00,857.000000,,2013-01-11 22:53:00,
2013-01-11 13:23:00,64.0,-99.9,-100.00,North,352,8.0,17.0,-999,0.00,,,0.00,832.000000,,2013-01-11 23:23:00,
2013-01-11 13:33:00,64.0,-99.9,-100.00,North,352,8.0,17.0,-999,0.00,,,0.00,832.000000,,2013-01-11 23:33:00,
2013-01-11 13:43:00,64.0,-99.9,-100.00,North,352,8.0,17.0,-999,0.00,,,0.00,832.000000,,2013-01-11 23:43:00,
2013-01-11 13:54:00,64.0,-99.9,-100.00,North,352,8.0,17.0,-999,0.00,,,0.00,832.000000,,2013-01-11 23:54:00,
2013-01-11 14:23:00,63.0,-99.9,-100.00,NNW,341,7.0,21.0,-999,0.00,,,0.00,352.000000,,2013-01-12 00:23:00,
2013-01-11 14:33:00,63.0,-99.9,-100.00,NNW,341,7.0,21.0,-999,0.00,,,0.00,352.000000,,2013-01-12 00:33:00,
2013-01-11 14:43:00,63.0,-99.9,-100.00,NNW,341,7.0,21.0,-999,0.00,,,0.00,352.000000,,2013-01-12 00:43:00,
2013-01-11 14:53:00,63.0,-99.9,-100.00,NNW,341,7.0,21.0,-999,0.00,,,0.00,352.000000,,2013-01-12 00:53:00,
2013-01-11 15:23:00,63.0,-99.9,-100.00,NNW,329,8.0,15.0,-999,0.00,,,0.00,326.000000,,2013-01-12 01:23:00,
2013-01-11 15:33:00,63.0,-99.9,-100.00,NNW,329,8.0,15.0,-999,0.00,,,0.00,326.000000,,2013-01-12 01:33:00,
2013-01-11 15:43:00,63.0,-99.9,-100.00,NNW,329,8.0,15.0,-999,0.00,,,0.00,326.000000,,2013-01-12 01:43:00,
2013-01-11 15:53:00,63.0,-99.9,-100.00,NNW,329,8.0,15.0,-999,0.00,,,0.00,326.000000,,2013-01-12 01:53:00,
2013-01-11 16:22:00,60.0,58.0,-100.00,North,1,7.0,17.0,92,0.00,,,0.00,266.000000,,2013-01-12 02:22:00,
2013-01-11 16:32:00,60.0,58.0,-100.00,North,1,7.0,17.0,92,0.00,,,0.00,266.000000,,2013-01-12 02:32:00,
2013-01-11 16:42:00,60.0,58.0,-100.00,North,1,7.0,17.0,92,0.00,,,0.00,266.000000,,2013-01-12 02:42:00,
2013-01-11 16:52:00,60.0,58.0,-100.00,North,1,7.0,17.0,92,0.00,,,0.00,266.000000,,2013-01-12 02:52:00,
2013-01-11 17:23:00,58.0,-99.9,-100.00,North,4,4.0,14.0,-999,0.00,,,0.00,89.000000,,2013-01-12 03:23:00,
2013-01-11 17:33:00,58.0,-99.9,-100.00,North,4,4.0,14.0,-999,0.00,,,0.00,89.000000,,2013-01-12 03:33:00,
2013-01-11 17:43:00,58.0,-99.9,-100.00,North,4,4.0,14.0,-999,0.00,,,0.00,89.000000,,2013-01-12 03:43:00,
2013-01-11 17:53:00,58.0,-99.9,-100.00,North,4,4.0,14.0,-999,0.00,,,0.00,89.000000,,2013-01-12 03:53:00,
2013-01-11 18:12:00,57.0,-99.9,-100.00,South,184,2.0,11.0,-999,0.00,,,0.00,107.000000,,2013-01-12 04:12:00,
2013-01-11 18:22:00,57.0,-99.9,-100.00,South,184,2.0,11.0,-999,0.00,,,0.00,107.000000,,2013-01-12 04:22:00,
2013-01-11 18:33:00,57.0,-99.9,-100.00,South,184,2.0,11.0,-999,0.00,,,0.00,107.000000,,2013-01-12 04:33:00,
2013-01-11 18:43:00,57.0,-99.9,-100.00,South,184,2.0,11.0,-999,0.00,,,0.00,107.000000,,2013-01-12 04:43:00,
2013-01-11 18:53:00,57.0,-99.9,-100.00,South,184,2.0,11.0,-999,0.00,,,0.00,107.000000,,2013-01-12 04:53:00,
2013-01-11 19:22:00,55.0,-99.9,-100.00,SE,135,6.0,6.0,-999,0.00,,,0.00,2.000000,,2013-01-12 05:22:00,
2013-01-11 19:32:00,55.0,-99.9,-100.00,SE,135,6.0,6.0,-999,0.00,,,0.00,2.000000,,2013-01-12 05:32:00,
2013-01-11 19:42:00,55.0,-99.9,-100.00,SE,135,6.0,6.0,-999,0.00,,,0.00,2.000000,,2013-01-12 05:42:00,
2013-01-11 19:53:00,55.0,-99.9,-100.00,SE,135,6.0,6.0,-999,0.00,,,0.00,2.000000,,2013-01-12 05:53:00,
2013-01-11 20:23:00,54.0,-99.9,-100.00,ESE,107,3.0,12.0,-999,0.00,,,0.00,0.000000,,2013-01-12 06:23:00,
2013-01-11 20:33:00,54.0,-99.9,-100.00,ESE,107,3.0,12.0,-999,0.00,,,0.00,0.000000,,2013-01-12 06:33:00,
2013-01-11 20:43:00,54.0,-99.9,-100.00,ESE,107,3.0,12.0,-999,0.00,,,0.00,0.000000,,2013-01-12 06:43:00,
2013-01-11 20:53:00,54.0,-99.9,-100.00,ESE,107,3.0,12.0,-999,0.00,,,0.00,0.000000,,2013-01-12 06:53:00,
2013-01-11 21:22:00,50.0,-99.9,-100.00,SE,125,2.0,5.0,-999,0.00,,,0.00,0.000000,,2013-01-12 07:22:00,
2013-01-11 21:32:00,50.0,-99.9,-100.00,SE,125,2.0,5.0,-999,0.00,,,0.00,0.000000,,2013-01-12 07:32:00,
2013-01-11 21:42:00,50.0,-99.9,-100.00,SE,125,2.0,5.0,-999,0.00,,,0.00,0.000000,,2013-01-12 07:42:00,
2013-01-11 21:53:00,50.0,-99.9,-100.00,SE,125,2.0,5.0,-999,0.00,,,0.00,0.000000,,2013-01-12 07:53:00,
2013-01-11 22:22:00,49.0,-99.9,-100.00,SE,139,6.0,6.0,-999,0.00,,,0.00,0.000000,,2013-01-12 08:22:00,
2013-01-11 22:32:00,49.0,-99.9,-100.00,SE,139,6.0,6.0,-999,0.00,,,0.00,0.000000,,2013-01-12 08:32:00,
2013-01-11 22:42:00,49.0,-99.9,-100.00,SE,139,6.0,6.0,-999,0.00,,,0.00,0.000000,,2013-01-12 08:42:00,
2013-01-11 22:53:00,49.0,-99.9,-100.00,SE,139,6.0,6.0,-999,0.00,,,0.00,0.000000,,2013-01-12 08:53:00,
2013-01-11 23:22:00,49.0,49.0,-100.00,South,171,6.0,8.0,99,0.00,,,0.00,0.000000,,2013-01-12 09:22:00,
2013-01-11 23:32:00,49.0,49.0,-100.00,South,171,6.0,8.0,99,0.00,,,0.00,0.000000,,2013-01-12 09:32:00,
2013-01-11 23:42:00,49.0,49.0,-100.00,South,171,6.0,8.0,99,0.00,,,0.00,0.000000,,2013-01-12 09:42:00,
2013-01-11 23:52:00,49.0,49.0,-100.00,South,171,6.0,8.0,99,0.00,,,0.00,0.000000,,2013-01-12 09:52:00,